| time (UTC) | temp F | wind direction | speed MPH | gust MPH | rain 1hr in | rain 24hr in | rain mn in | humidity % | barometer mb |
| 20260906014106 | 60 | 0 | 0.0 | 0.0 | 0.00 | 0.03 | 0.00 | 93 | 1023.8 |
| 20260906013107 | 59 | 353 | 0.0 | 0.0 | 0.00 | 0.03 | 0.00 | 92 | 1023.9 |
| 20260906012107 | 59 | 0 | 0.0 | 0.0 | 0.00 | 0.03 | 0.00 | 92 | 1023.9 |
| 20260906011106 | 59 | 0 | 0.0 | 0.0 | 0.00 | 0.03 | 0.00 | 92 | 1023.8 |
| 20260906010106 | 60 | 0 | 0.0 | 0.0 | 0.00 | 0.03 | 0.00 | 92 | 1023.7 |
| 20260906005107 | 60 | 0 | 0.0 | 0.0 | 0.00 | 0.03 | 0.00 | 92 | 1023.7 |
| 20260906004003 | 60 | 0 | 0.0 | 0.0 | 0.00 | 0.03 | 0.00 | 92 | 1023.6 |
| 20260906003106 | 60 | 0 | 0.0 | 0.0 | 0.00 | 0.03 | 0.00 | 91 | 1023.6 |
| 20260906002003 | 60 | 0 | 0.0 | 0.0 | 0.00 | 0.03 | 0.00 | 91 | 1023.6 |
| 20260906001107 | 60 | 0 | 0.0 | 0.0 | 0.00 | 0.03 | 0.00 | 91 | 1023.6 |
| 20260906000004 | 60 | 0 | 0.0 | 0.0 | 0.00 | 0.03 | 0.00 | 90 | 1023.5 |
| 20260905235106 | 60 | 0 | 0.0 | 0.0 | 0.00 | 0.03 | 0.00 | 90 | 1023.4 |
| 20260905234003 | 60 | 0 | 0.0 | 0.0 | 0.00 | 0.03 | 0.00 | 90 | 1023.2 |
| 20260905233004 | 61 | 0 | 0.0 | 0.0 | 0.00 | 0.03 | 0.00 | 90 | 1023.2 |
| 20260905232107 | 61 | 0 | 0.0 | 0.0 | 0.00 | 0.03 | 0.00 | 90 | 1023.2 |
| 20260905231003 | 61 | 0 | 0.0 | 0.0 | 0.00 | 0.03 | 0.00 | 89 | 1023.2 |
| 20260905230106 | 61 | 0 | 0.0 | 0.0 | 0.00 | 0.03 | 0.00 | 89 | 1023.1 |
| 20260905225003 | 62 | 0 | 0.0 | 0.0 | 0.00 | 0.03 | 0.00 | 89 | 1023.2 |
| 20260905224004 | 62 | 0 | 0.0 | 0.0 | 0.00 | 0.03 | 0.00 | 89 | 1023.1 |
| 20260905223004 | 62 | 0 | 0.0 | 0.0 | 0.00 | 0.03 | 0.00 | 89 | 1023.1 |
| 20260905222106 | 63 | 0 | 0.0 | 0.0 | 0.00 | 0.03 | 0.00 | 88 | 1023.1 |
| 20260905221003 | 63 | 353 | 0.0 | 0.0 | 0.00 | 0.03 | 0.00 | 88 | 1023.1 |
| 20260905215004 | 64 | 0 | 0.0 | 0.0 | 0.00 | 0.03 | 0.03 | 88 | 1022.9 |
| 20260905214003 | 64 | 0 | 0.0 | 0.0 | 0.00 | 0.03 | 0.03 | 88 | 1022.8 |
| 20260905213003 | 64 | 0 | 0.0 | 0.0 | 0.00 | 0.03 | 0.03 | 88 | 1022.8 |
| 20260905212003 | 64 | 0 | 0.0 | 0.0 | 0.00 | 0.03 | 0.03 | 88 | 1022.6 |
| 20260905211106 | 65 | 0 | 0.0 | 0.0 | 0.00 | 0.03 | 0.03 | 88 | 1022.4 |
| 20260905210004 | 65 | 0 | 0.0 | 0.0 | 0.00 | 0.03 | 0.03 | 87 | 1022.4 |
| 20260905205106 | 65 | 0 | 0.0 | 0.0 | 0.00 | 0.03 | 0.03 | 87 | 1022.5 |
| 20260905204106 | 65 | 0 | 0.0 | 0.0 | 0.00 | 0.03 | 0.03 | 87 | 1022.5 |
| 20260905203003 | 65 | 353 | 0.0 | 0.0 | 0.00 | 0.03 | 0.03 | 86 | 1022.4 |
| 20260905202107 | 65 | 0 | 0.0 | 0.0 | 0.00 | 0.03 | 0.03 | 86 | 1022.3 |
| 20260905201107 | 65 | 0 | 0.0 | 0.0 | 0.00 | 0.03 | 0.03 | 86 | 1022.3 |
| 20260905200106 | 66 | 0 | 0.0 | 0.0 | 0.00 | 0.03 | 0.03 | 86 | 1021.9 |
| 20260905195106 | 66 | 348 | 0.0 | 1.0 | 0.00 | 0.03 | 0.03 | 86 | 1021.9 |
| 20260905194004 | 66 | 346 | 0.0 | 0.0 | 0.00 | 0.03 | 0.03 | 85 | 1021.8 |
| 20260905193107 | 66 | 0 | 0.0 | 0.0 | 0.00 | 0.03 | 0.03 | 84 | 1021.6 |
| 20260905192003 | 66 | 346 | 0.0 | 0.0 | 0.00 | 0.03 | 0.03 | 83 | 1021.3 |
| 20260905191003 | 67 | 0 | 0.0 | 0.0 | 0.00 | 0.03 | 0.03 | 82 | 1021.2 |
| 20260905190004 | 67 | 346 | 0.0 | 1.0 | 0.00 | 0.03 | 0.03 | 82 | 1021.0 |
| 20260905185003 | 66 | 343 | 0.0 | 1.0 | 0.00 | 0.03 | 0.03 | 83 | 1020.9 |
| 20260905184106 | 66 | 334 | 0.0 | 1.0 | 0.00 | 0.03 | 0.03 | 85 | 1021.0 |
| 20260905183004 | 66 | 280 | 0.0 | 0.0 | 0.00 | 0.03 | 0.03 | 86 | 1020.9 |
| 20260905182003 | 66 | 280 | 0.0 | 0.0 | 0.00 | 0.03 | 0.03 | 86 | 1020.8 |
| 20260905181003 | 66 | 0 | 0.0 | 0.0 | 0.00 | 0.03 | 0.03 | 86 | 1020.7 |
| 20260905180106 | 66 | 0 | 0.0 | 0.0 | 0.00 | 0.03 | 0.03 | 86 | 1020.7 |
| 20260905175107 | 66 | 0 | 0.0 | 0.0 | 0.00 | 0.03 | 0.03 | 85 | 1020.4 |
| 20260905174106 | 67 | 276 | 0.0 | 1.0 | 0.00 | 0.03 | 0.03 | 83 | 1020.2 |
| 20260905173106 | 67 | 276 | 0.0 | 0.0 | 0.00 | 0.03 | 0.03 | 83 | 1020.0 |
| 20260905172107 | 68 | 276 | 0.0 | 0.0 | 0.00 | 0.03 | 0.03 | 83 | 1020.0 |
| 20260905171107 | 68 | 276 | 0.0 | 1.0 | 0.00 | 0.03 | 0.03 | 81 | 1020.1 |
| 20260905170003 | 69 | 276 | 0.0 | 0.0 | 0.00 | 0.03 | 0.03 | 82 | 1019.9 |
| 20260905165003 | 69 | 276 | 0.0 | 0.0 | 0.00 | 0.03 | 0.03 | 82 | 1019.8 |
| 20260905164107 | 70 | 276 | 0.0 | 0.0 | 0.00 | 0.03 | 0.03 | 82 | 1019.7 |
| 20260905163004 | 70 | 276 | 0.0 | 0.0 | 0.00 | 0.03 | 0.03 | 82 | 1019.6 |
| 20260905162003 | 71 | 276 | 0.0 | 0.0 | 0.00 | 0.03 | 0.03 | 81 | 1019.6 |
| 20260905161106 | 71 | 276 | 0.0 | 0.0 | 0.00 | 0.03 | 0.03 | 81 | 1019.6 |
| 20260905160004 | 72 | 276 | 0.0 | 1.0 | 0.00 | 0.03 | 0.03 | 81 | 1019.6 |
| 20260905155107 | 72 | 276 | 0.0 | 1.0 | 0.00 | 0.03 | 0.03 | 80 | 1019.7 |
| 20260905154106 | 73 | 276 | 0.0 | 0.0 | 0.00 | 0.03 | 0.03 | 78 | 1019.6 |
| 20260905153106 | 73 | 276 | 0.0 | 1.0 | 0.00 | 0.03 | 0.03 | 77 | 1019.4 |
| 20260905152106 | 73 | 276 | 0.0 | 2.0 | 0.00 | 0.03 | 0.03 | 73 | 1019.6 |
| 20260905151107 | 72 | 276 | 0.0 | 0.0 | 0.00 | 0.03 | 0.03 | 79 | 1019.5 |
| 20260905150004 | 71 | 276 | 0.0 | 1.0 | 0.03 | 0.03 | 0.03 | 84 | 1019.7 |
| 20260905145106 | 71 | 276 | 0.0 | 0.0 | 0.03 | 0.03 | 0.03 | 82 | 1019.8 |
| 20260905144003 | 71 | 276 | 0.0 | 0.0 | 0.03 | 0.03 | 0.03 | 81 | 1019.9 |
| 20260905143107 | 71 | 276 | 0.0 | 2.0 | 0.03 | 0.03 | 0.03 | 81 | 1020.0 |
| 20260905142107 | 71 | 353 | 0.0 | 2.0 | 0.03 | 0.03 | 0.03 | 80 | 1020.1 |
| 20260905141003 | 72 | 2 | 0.0 | 1.0 | 0.03 | 0.03 | 0.03 | 76 | 1020.1 |
| 20260905140004 | 72 | 2 | 0.0 | 0.0 | 0.00 | 0.00 | 0.00 | 72 | 1020.1 |
| 20260905135106 | 71 | 2 | 0.0 | 1.0 | 0.00 | 0.00 | 0.00 | 68 | 1020.2 |
| 20260905134004 | 72 | 10 | 1.0 | 3.0 | 0.00 | 0.00 | 0.00 | 69 | 1020.3 |
| 20260905133107 | 72 | 357 | 1.0 | 4.0 | 0.00 | 0.00 | 0.00 | 66 | 1020.3 |
| 20260905132106 | 73 | 337 | 1.0 | 3.0 | 0.00 | 0.00 | 0.00 | 65 | 1020.2 |
| 20260905131003 | 74 | 335 | 2.0 | 2.0 | 0.00 | 0.00 | 0.00 | 60 | 1020.0 |
| 20260905130004 | 75 | 2 | 2.0 | 4.0 | 0.00 | 0.00 | 0.00 | 56 | 1020.0 |
| 20260905125003 | 76 | 358 | 1.0 | 7.0 | 0.00 | 0.00 | 0.00 | 50 | 1020.2 |
| 20260905124106 | 76 | 65 | 1.0 | 4.0 | 0.00 | 0.00 | 0.00 | 49 | 1020.0 |
| 20260905123106 | 77 | 76 | 1.0 | 2.0 | 0.00 | 0.00 | 0.00 | 51 | 1019.8 |
| 20260905122107 | 77 | 95 | 2.0 | 5.0 | 0.00 | 0.00 | 0.00 | 50 | 1019.7 |
| 20260905121003 | 77 | 52 | 2.0 | 8.0 | 0.00 | 0.00 | 0.00 | 47 | 1019.5 |
| 20260905120003 | 77 | 56 | 2.0 | 7.0 | 0.00 | 0.00 | 0.00 | 46 | 1019.5 |
| 20260905115003 | 78 | 65 | 2.0 | 9.0 | 0.00 | 0.00 | 0.00 | 47 | 1019.7 |
| 20260905114107 | 79 | 53 | 2.0 | 10.0 | 0.00 | 0.00 | 0.00 | 46 | 1019.6 |
| 20260905113004 | 79 | 76 | 2.0 | 6.0 | 0.00 | 0.00 | 0.00 | 46 | 1019.6 |
| 20260905112106 | 79 | 60 | 3.0 | 9.0 | 0.00 | 0.00 | 0.00 | 45 | 1019.5 |
| 20260905111106 | 79 | 81 | 4.0 | 10.0 | 0.00 | 0.00 | 0.00 | 45 | 1019.5 |
| 20260905110004 | 80 | 43 | 4.0 | 10.0 | 0.00 | 0.00 | 0.00 | 45 | 1019.5 |
| 20260905105106 | 80 | 39 | 4.0 | 11.0 | 0.00 | 0.00 | 0.00 | 48 | 1019.4 |
| 20260905104106 | 79 | 52 | 4.0 | 8.0 | 0.00 | 0.00 | 0.00 | 44 | 1019.5 |
| 20260905103106 | 78 | 55 | 3.0 | 11.0 | 0.00 | 0.00 | 0.00 | 47 | 1019.3 |
| 20260905102004 | 78 | 69 | 3.0 | 8.0 | 0.00 | 0.00 | 0.00 | 50 | 1019.3 |
| 20260905101107 | 77 | 65 | 3.0 | 10.0 | 0.00 | 0.00 | 0.00 | 48 | 1019.4 |
| 20260905100003 | 77 | 66 | 4.0 | 10.0 | 0.00 | 0.00 | 0.00 | 50 | 1019.5 |
| 20260905095003 | 78 | 62 | 4.0 | 15.0 | 0.00 | 0.00 | 0.00 | 48 | 1019.4 |
| 20260905094004 | 78 | 77 | 3.0 | 11.0 | 0.00 | 0.00 | 0.00 | 48 | 1019.4 |
| 20260905093003 | 78 | 73 | 3.0 | 10.0 | 0.00 | 0.00 | 0.00 | 52 | 1019.3 |
| 20260905092003 | 78 | 104 | 3.0 | 11.0 | 0.00 | 0.00 | 0.00 | 51 | 1019.3 |
| 20260905091003 | 78 | 79 | 3.0 | 11.0 | 0.00 | 0.00 | 0.00 | 54 | 1019.1 |
| 20260905090004 | 79 | 82 | 3.0 | 12.0 | 0.00 | 0.00 | 0.00 | 55 | 1018.9 |
| 20260905085004 | 80 | 109 | 3.0 | 10.0 | 0.00 | 0.00 | 0.00 | 57 | 1018.7 |
| 20260905084106 | 79 | 127 | 4.0 | 12.0 | 0.00 | 0.00 | 0.00 | 58 | 1018.6 |
| 20260905083106 | 80 | 56 | 5.0 | 12.0 | 0.00 | 0.00 | 0.00 | 56 | 1018.6 |
| 20260905082003 | 81 | 66 | 5.0 | 16.0 | 0.00 | 0.00 | 0.00 | 56 | 1018.1 |
| 20260905081107 | 82 | 62 | 4.0 | 16.0 | 0.00 | 0.00 | 0.00 | 57 | 1017.6 |
| 20260905080106 | 83 | 41 | 3.0 | 8.0 | 0.00 | 0.00 | 0.00 | 57 | 1016.8 |
| 20260905075106 | 82 | 29 | 2.0 | 5.0 | 0.00 | 0.00 | 0.00 | 60 | 1016.5 |
| 20260905074106 | 82 | 27 | 3.0 | 4.0 | 0.00 | 0.00 | 0.00 | 62 | 1016.4 |
| 20260905073004 | 82 | 28 | 3.0 | 7.0 | 0.00 | 0.00 | 0.00 | 59 | 1016.2 |
| 20260905072003 | 82 | 267 | 1.0 | 4.0 | 0.00 | 0.00 | 0.00 | 60 | 1016.1 |
| 20260905071003 | 81 | 182 | 1.0 | 3.0 | 0.00 | 0.00 | 0.00 | 58 | 1015.9 |
| 20260905070003 | 80 | 182 | 1.0 | 3.0 | 0.00 | 0.00 | 0.00 | 59 | 1015.8 |
| 20260905065004 | 79 | 161 | 2.0 | 3.0 | 0.00 | 0.00 | 0.00 | 60 | 1015.6 |
| 20260905064107 | 79 | 238 | 2.0 | 7.0 | 0.00 | 0.00 | 0.00 | 61 | 1015.4 |
| 20260905063003 | 78 | 245 | 1.0 | 7.0 | 0.00 | 0.00 | 0.00 | 62 | 1015.4 |
| 20260905062107 | 77 | 186 | 1.0 | 4.0 | 0.00 | 0.00 | 0.00 | 63 | 1015.6 |
| 20260905061003 | 77 | 22 | 1.0 | 6.0 | 0.00 | 0.00 | 0.00 | 64 | 1015.5 |
| 20260905060106 | 76 | 232 | 1.0 | 5.0 | 0.00 | 0.00 | 0.00 | 63 | 1015.5 |
| 20260905055106 | 76 | 237 | 2.0 | 7.0 | 0.00 | 0.00 | 0.00 | 64 | 1015.5 |
| 20260905054004 | 76 | 231 | 2.0 | 8.0 | 0.00 | 0.00 | 0.00 | 63 | 1015.4 |
| 20260905053003 | 76 | 244 | 2.0 | 7.0 | 0.00 | 0.00 | 0.00 | 64 | 1015.4 |
| 20260905052003 | 76 | 257 | 2.0 | 4.0 | 0.00 | 0.00 | 0.00 | 63 | 1015.1 |
| 20260905051106 | 75 | 248 | 2.0 | 6.0 | 0.00 | 0.00 | 0.00 | 64 | 1015.0 |
| 20260905050107 | 75 | 239 | 2.0 | 8.0 | 0.00 | 0.00 | 0.00 | 64 | 1014.8 |
| 20260905045107 | 75 | 224 | 2.0 | 4.0 | 0.00 | 0.00 | 0.00 | 64 | 1014.7 |
| 20260905044106 | 75 | 225 | 3.0 | 6.0 | 0.00 | 0.00 | 0.00 | 64 | 1014.6 |
| 20260905043004 | 74 | 238 | 4.0 | 10.0 | 0.00 | 0.00 | 0.00 | 64 | 1014.5 |
| 20260905042107 | 74 | 219 | 3.0 | 8.0 | 0.00 | 0.00 | 0.00 | 64 | 1014.6 |
| 20260905041003 | 75 | 232 | 3.0 | 9.0 | 0.00 | 0.00 | 0.00 | 64 | 1014.6 |
| 20260905040107 | 75 | 242 | 3.0 | 11.0 | 0.00 | 0.00 | 0.00 | 62 | 1014.4 |
| 20260905035107 | 76 | 240 | 4.0 | 9.0 | 0.00 | 0.00 | 0.00 | 61 | 1014.3 |
| 20260905034003 | 76 | 245 | 5.0 | 11.0 | 0.00 | 0.00 | 0.00 | 60 | 1014.1 |
| 20260905033003 | 77 | 253 | 6.0 | 14.0 | 0.00 | 0.00 | 0.00 | 60 | 1014.2 |
| 20260905032004 | 77 | 252 | 6.0 | 13.0 | 0.00 | 0.00 | 0.00 | 60 | 1014.0 |
| 20260905031003 | 76 | 255 | 6.0 | 14.0 | 0.00 | 0.00 | 0.00 | 61 | 1014.0 |
| 20260905030003 | 76 | 255 | 5.0 | 12.0 | 0.00 | 0.00 | 0.00 | 62 | 1014.0 |
| 20260905025003 | 76 | 248 | 5.0 | 10.0 | 0.00 | 0.00 | 0.00 | 62 | 1014.1 |
| 20260905024004 | 75 | 255 | 5.0 | 13.0 | 0.00 | 0.00 | 0.00 | 62 | 1014.1 |
| 20260905023106 | 75 | 255 | 5.0 | 13.0 | 0.00 | 0.00 | 0.00 | 62 | 1014.0 |
| 20260905022106 | 75 | 256 | 4.0 | 14.0 | 0.00 | 0.00 | 0.00 | 62 | 1014.0 |
| 20260905021004 | 75 | 245 | 3.0 | 9.0 | 0.00 | 0.00 | 0.00 | 62 | 1014.0 |
| 20260905020003 | 75 | 266 | 3.0 | 11.0 | 0.00 | 0.00 | 0.00 | 63 | 1014.1 |
| 20260905015106 | 74 | 288 | 4.0 | 9.0 | 0.00 | 0.00 | 0.00 | 63 | 1014.2 |